Location: Walsall
(52.5862°N, 1.9829°W)
Time: 12:15:47
(UTC+00:00)

BlueWalker 3 - Visible Passes

Search period start: 02 December 2022 00:00
Search period end: 12 December 2022 00:00
Orbit: 500 x 519 km, 53.2° (Epoch: 01 December)

Date Brightness Start Highest point End Pass type
(mag) Time Alt. Az. Time Alt. Az. Time Alt. Az.
02 Dec 1.9 17:36:07 10° W 17:40:04 82° N 17:41:59 29° E visible
02 Dec 4.0 19:14:53 10° WNW 19:16:48 27° W 19:16:48 27° W visible
03 Dec 1.9 17:17:45 10° W 17:21:41 81° N 17:24:20 20° E visible
03 Dec 3.2 18:56:30 10° WNW 18:59:10 41° W 18:59:10 41° W visible
04 Dec 1.9 16:59:22 10° W 17:03:18 81° N 17:06:44 13° E visible
04 Dec 2.3 18:38:07 10° WNW 18:41:33 64° WSW 18:41:33 64° WSW visible
05 Dec 2.0 16:40:58 10° W 16:44:55 80° N 16:48:50 10° E visible
05 Dec 1.9 18:19:43 10° WNW 18:23:38 74° SSW 18:24:00 67° SSE visible
05 Dec 5.3 19:58:41 10° W 19:58:50 11° W 19:58:50 11° W visible
06 Dec 2.1 18:01:19 10° WNW 18:05:14 72° SSW 18:06:30 40° SE visible
06 Dec 4.9 19:40:19 10° W 19:41:20 15° W 19:41:20 15° W visible
07 Dec 2.1 17:42:54 10° WNW 17:46:49 70° SSW 17:49:06 23° ESE visible
07 Dec 4.4 19:21:57 10° W 19:23:57 20° WSW 19:23:57 20° WSW visible
08 Dec 2.2 17:24:30 10° WNW 17:28:24 68° SSW 17:31:49 13° ESE visible
08 Dec 4.1 19:03:34 10° W 19:06:36 22° SW 19:06:41 22° SW visible
09 Dec 2.3 17:06:05 10° WNW 17:09:59 66° SSW 17:13:50 10° ESE visible
09 Dec 4.2 18:45:12 10° W 18:48:09 21° SW 18:49:36 17° S visible
10 Dec 2.4 16:47:39 10° WNW 16:51:33 64° SSW 16:55:24 10° ESE visible
10 Dec 4.4 18:26:49 10° W 18:29:42 20° SW 18:32:33 10° S visible
11 Dec 2.5 16:29:13 10° WNW 16:33:06 62° SSW 16:36:57 10° ESE visible
11 Dec 4.6 18:08:27 10° W 18:11:14 19° SW 18:14:00 10° S visible
